TimeMST,TemperatureF,Dew PointF,Humidity,Sea Level PressureIn,VisibilityMPH,Wind Direction,Wind SpeedMPH,Gust SpeedMPH,PrecipitationIn,Events,Conditions,WindDirDegrees,DateUTC
12:56 AM,32.0,23.0,69,29.81,-9999.0,WSW,6.9,-,N/A,,Clear,250,2013-01-08 07:56:00
1:56 AM,33.1,24.1,70,29.81,-9999.0,West,4.6,-,N/A,,Clear,260,2013-01-08 08:56:00
2:56 AM,36.0,25.0,64,29.78,-9999.0,SSE,5.8,-,N/A,,Overcast,160,2013-01-08 09:56:00
3:56 AM,39.0,25.0,57,29.78,-9999.0,SE,4.6,-,N/A,,Overcast,130,2013-01-08 10:56:00
4:56 AM,33.1,25.0,72,29.81,-9999.0,West,10.4,-,N/A,,Overcast,280,2013-01-08 11:56:00
5:56 AM,36.0,25.0,64,29.84,-9999.0,SSW,6.9,-,N/A,,Scattered Clouds,210,2013-01-08 12:56:00
6:56 AM,37.0,25.0,62,29.85,-9999.0,SE,4.6,-,N/A,,Clear,140,2013-01-08 13:56:00
7:56 AM,30.9,24.1,76,29.91,-9999.0,West,9.2,-,N/A,,Clear,280,2013-01-08 14:56:00
8:56 AM,39.9,26.1,58,29.93,-9999.0,SW,4.6,-,N/A,,Clear,220,2013-01-08 15:56:00
9:56 AM,45.0,25.0,46,29.94,-9999.0,West,3.5,-,N/A,,Clear,280,2013-01-08 16:56:00
10:56 AM,50.0,24.1,36,29.93,-9999.0,Variable,3.5,-,N/A,,Clear,0,2013-01-08 17:56:00
11:56 AM,54.0,23.0,30,29.91,-9999.0,Variable,3.5,-,N/A,,Clear,0,2013-01-08 18:56:00
12:56 PM,55.9,19.0,24,29.90,-9999.0,NW,5.8,-,N/A,,Clear,320,2013-01-08 19:56:00
1:56 PM,57.9,17.1,20,29.87,-9999.0,Variable,4.6,-,N/A,,Clear,0,2013-01-08 20:56:00
2:56 PM,57.9,17.1,20,29.88,-9999.0,WNW,11.5,-,N/A,,Clear,300,2013-01-08 21:56:00
3:56 PM,55.9,15.1,20,29.88,-9999.0,NW,12.7,-,N/A,,Clear,310,2013-01-08 22:56:00
4:56 PM,53.1,17.1,24,29.93,-9999.0,NW,8.1,-,N/A,,Clear,310,2013-01-08 23:56:00
5:56 PM,48.0,16.0,28,29.95,-9999.0,SW,3.5,-,N/A,,Clear,220,2013-01-09 00:56:00
6:56 PM,42.1,17.1,37,29.98,-9999.0,WSW,8.1,-,N/A,,Clear,240,2013-01-09 01:56:00
7:56 PM,39.0,18.0,43,30.01,-9999.0,WSW,11.5,-,N/A,,Clear,240,2013-01-09 02:56:00
8:56 PM,39.9,18.0,41,30.00,-9999.0,WSW,9.2,-,N/A,,Clear,240,2013-01-09 03:56:00
9:56 PM,37.9,18.0,45,30.02,-9999.0,WSW,10.4,-,N/A,,Clear,240,2013-01-09 04:56:00
10:56 PM,39.0,18.0,43,30.02,-9999.0,SW,9.2,-,N/A,,Clear,220,2013-01-09 05:56:00
11:56 PM,39.9,18.0,41,30.00,-9999.0,SW,5.8,-,N/A,,Clear,220,2013-01-09 06:56:00